Location: Berg
(47.2344°N, 9.5296°E)
Time: 02:30:45
(UTC+00:00)

ISS - Visible Passes

Search period start: 18 September 2021 00:00
Search period end: 28 September 2021 00:00
Orbit: 419 x 423 km, 51.6° (Epoch: 17 September)

Date Brightness Start Highest point End Pass type
(mag) Time Alt. Az. Time Alt. Az. Time Alt. Az.
18 Sep -3.7 18:51:58 10° SW 18:55:18 59° SSE 18:56:29 35° E visible
18 Sep -0.6 20:29:00 10° W 20:29:30 13° W 20:29:30 13° W visible
19 Sep -3.1 18:05:19 10° SW 18:08:28 39° SE 18:11:39 10° ENE visible
19 Sep -2.7 19:41:59 10° W 19:44:44 46° NW 19:44:44 46° NW visible
20 Sep -3.5 18:54:58 10° WSW 18:58:20 68° NNW 18:59:50 30° NE visible
20 Sep -0.5 20:32:20 10° WNW 20:32:51 13° WNW 20:32:51 13° WNW visible
21 Sep -3.8 18:08:02 10° WSW 18:11:25 89° SSE 18:14:49 10° ENE visible
21 Sep -2.1 19:45:19 10° WNW 19:47:51 34° NW 19:47:51 34° NW visible
22 Sep -2.8 18:58:15 10° W 19:01:30 43° N 19:02:47 29° NE visible
22 Sep -0.3 20:35:34 10° WNW 20:35:46 11° WNW 20:35:46 11° WNW visible
23 Sep -3.1 18:11:13 10° W 18:14:31 51° NNW 18:17:39 11° ENE visible
23 Sep -1.7 19:48:35 10° WNW 19:50:39 28° NW 19:50:39 28° NW visible
24 Sep -2.6 19:01:34 10° WNW 19:04:44 37° N 19:05:29 32° NNE visible
25 Sep -2.6 18:14:31 10° WNW 18:17:43 38° N 18:20:19 14° ENE visible
25 Sep -1.4 19:51:41 10° WNW 19:53:18 25° NW 19:53:18 25° NW visible
26 Sep -3.0 19:04:43 10° WNW 19:07:58 42° N 19:08:06 41° NNE visible
27 Sep -2.7 18:17:44 10° WNW 18:20:56 38° N 18:22:55 19° ENE visible
27 Sep -1.1 19:54:39 10° WNW 19:55:54 21° WNW 19:55:54 21° WNW visible
